FENGYUN 1C DEB

Satellite information

Favourite Embed

Satellite Type and Status

DEBRISIN ORBIT

Key statistics

Satellite FENGYUN 1C DEB at a glance.

Uptime

9714

Days in orbit

Revolutions

≈ 14.2

Per day

Orbit

SSO

Sun Synchronous Orbit

Inclination

99.2

Latest

Satellite identification and parameters

Extended collection of information and parameters for FENGYUN 1C DEB.

Object identification

Identified? True

Debris? True

Object name: FENGYUN 1C DEB

International designator: 1999-025EDL

Object number (NORAD): 37028

Object ID (CCSDS): 37028

Country: PEOPLES REPUBLIC OF CHINA (PRC)

Current information (Y/N): Y

RCS size: SMALL

Orbital parameters

Period: 101.216 minutes

Inclination: 99.2453 deg

SMA: 7194.364 km

Apoapsis: 840.0 km

Periapsis: 792.458 km

RAAN: 251.5588 deg

Eccentricy: 0.00330412

Argument of periapsis: 106.1234 deg

Mean anomaly: 254.3583 deg

Mean motion: 14.22702576 rev/day

Mean motion (dot): 0.0000531 rev/day2

B* drag term: 0.0023776315 1/REarth

Two-line elements (TLE)

Creation date: Dec. 10, 2025, 10:40 a.m.

Reference frame: TEME

Reference center: EARTH

Epoch: Dec. 9, 2025, 11:21 p.m. UTC

TLE line 0: 0 FENGYUN 1C DEB

TLE line 1: 1 37028U 99025EDL 25343.97305769 .00005310 00000-0 23776-2 0 9994

TLE line 2: 2 37028 99.2453 251.5588 0033041 106.1234 254.3583 14.22702576604361

Live tracking on map

Real-time ground track for satellite FENGYUN 1C DEB.

In-orbit conjunctions

A list of the most updated potential collisions computed for object FENGYUN 1C DEB.

Target Orbit TCA Probability of collision Miss distance Type
THORAD AGENA D DEB SSO 2025-10-23 05:09:59 0.0001391646 136.0 (m) DEBRIS
FENGYUN 1C DEB SSO 2025-09-12 02:24:40 0.0001085173 472.0 (m) DEBRIS
METEOR 1-20 LEO 2025-07-21 04:33:41 0.001991715 144.0 (m) PAYLOAD
METEOR 1-17 DEB LEO 2025-01-06 01:06:24 0.000117314 91.0 (m) DEBRIS
CZ-6A DEB LEO 2024-10-16 09:29:39 0.0001795829 833.0 (m) DEBRIS

Associated space launch

Chinese polar orbiting meteorological satellite

FENGYUN 1C DEB was lifted into orbit during the mission ‘Long March 4B | Feng Yun 1C’, on board a Long March 4B space rocket.

The launch took place on May 10, 1999, 1:33 a.m. from Launch Complex 7.

For more information about the launch, click the button.

Launch to space Long March 4B | Feng Yun 1C
Long March 4B | Feng Yun 1C

Agency: N/A

Status: Launch Successful

Launch date: May 10, 1999, 1:33 a.m. UTC

Rocket: Long March 4B

Launch pad: Launch Complex 7

Location: Taiyuan Satellite Launch Center, People's Republic of China

...

Latest news about this satellite

There are no fresh news available about this satellite. Check back as we update our databases every day.


Newsletter sign-up

Weekly statistics, charts and insights to help you stay on top of the space industry.